Weather in Freiburg

Germany     47°59′22″N   7°49′46″E
temp.,
°C
wind,
m/s
gust,
m/s
humid.,
%
clouds,
%
prec.,
mm/h
press.,
hPa
HPBL,
m
22 october, fri
fri2223:00+12sw71467100 0.8 10161249
02:00+10wnw249195 2.0 1018337
05:00+8nne348991 0.1 1019219
08:00+5ene22911 0.1 102014
11:00+9nnw11670 0.0 1022427
14:00+11wnw22541 0.0 1022991
17:00+12ne02530 0.0 1022911
20:00+6ene226441 0.0 102511
23 october, sat
sat2323:00+5se216712 0.0 102711
02:00+5sse227558 0.0 102718
05:00+6sse227380 0.0 102725
08:00+6sse1169100 0.0 102728
11:00+9nnw22604 0.0 1028468
14:00+13nnw34505 0.0 10261213
17:00+12n46585 0.0 1026326
20:00+6ese22805 0.0 102722
24 october, sun
sun2423:00+5ese118310 0.0 102719
02:00+4se118197 0.0 102717
05:00+3sse11850 0.0 102714
08:00+3sse11840 0.0 102611
11:00+8wnw10660 0.0 1026251
14:00+13nw11560 0.0 1024395
17:00+13n11640 0.0 102349
20:00+8se11750 0.0 102412
25 october, mon
mon2523:00+7sse11680 0.0 102412
02:00+7se117583 0.0 102412
05:00+7ese1177100 0.0 102411
08:00+7se1178100 0.0 102310
11:00+11w116493 0.0 1024182
14:00+15w225565 0.0 1023462
17:00+15nnw116384 0.0 102222
20:00+10ese1179100 0.0 102312
26 october, tue
tue2623:00+9sse11835 0.0 102411
02:00+7sse11875 0.0 102510
05:00+7sse11905 0.0 102610
08:00+6sse11914 0.0 102610
11:00+11w11760 0.0 1026257
14:00+14nne11650 0.0 1025465
17:00+14n23687 0.0 1025202
20:00+9ese21862 0.0 102613